Preview of NWS' New Version of Forecast
This preview is not operational and should not be used for support decisions.

Regional Weather Roundup (RWR)

Issued by National Weather Service (NWS)

                            
000
ASUS44 KMEG 180600
RWRTN 
TENNESSEE HOURLY STATE WEATHER ROUNDUP
NATIONAL WEATHER SERVICE MEMPHIS TN
100 AM CDT TUE JUN 18 2019

TNZ002-004-019-021-049-052-054-088>092-180700-
WEST TENNESSEE
  
CITY           SKY/WX    TMP DP  RH WIND       PRES   REMARKS
MEMPHIS INTL   HVY RAIN  70  69  97 S15G22    29.94S FOG              
NWS MEMPHIS      N/A     72 N/A N/A MISG        N/A                   
JACKSON        FAIR      71  70  96 S3        29.94F                  
DYERSBURG      LGT RAIN  72  69  90 CALM      29.94S                  
$$

TNZ008-025-027-028-033-062-065-066-180700-
NORTH MIDDLE TENNESSEE
  
CITY           SKY/WX    TMP DP  RH WIND       PRES   REMARKS
NASHVILLE      MOCLDY    71  67  87 S8        29.98F                  
CLARKSVILLE    FAIR      72  68  87 S5        29.96F                  
SMYRNA         FAIR      70  69  97 SE5       29.99F                  
CROSSVILLE     FAIR      66  64  93 CALM      30.07F                  
$$

TNZ061-075-076-078-094-096-097-180700-
SOUTH MIDDLE TENNESSEE
  
CITY           SKY/WX    TMP DP  RH WIND       PRES   REMARKS
$$

TNZ017-018-042-046-047-180700-
NORTHEAST TENNESSEE
  
CITY           SKY/WX    TMP DP  RH WIND       PRES   REMARKS
TRI CITIES     MOCLDY    67  65  93 CALM      30.07F                  
$$

TNZ012-013-036-069-073-074-180700-
CENTRAL EAST TENNESSEE
  
CITY           SKY/WX    TMP DP  RH WIND       PRES   REMARKS
KNOXVILLE      CLOUDY    71  68  90 NE5       30.02S                  
OAK RIDGE      LGT RAIN  72  69  90 CALM      30.04F                  
$$

TNZ083-085-099-180700-
SOUTHEAST TENNESSEE
  
CITY           SKY/WX    TMP DP  RH WIND       PRES   REMARKS
CHATTANOOGA    FAIR      74  73  97 CALM      30.01F                  
$$

SKY/WX REPORTED AS FAIR MEANS FEW OR NO CLOUDS BELOW
12 THOUSAND FEET.